sat.trackr.live / text

‹ back to catalog

STARLINK-11291 [DTC]

NORAD 61208 · 2024-171J

PAYLOAD ACTIVE UNKNOWN

§ Identity

Operator
Country
US
Launch date
2024-09-20
Launch site
AFWTR
Launch vehicle
Mass (kg)
RCS (m²)

Purposes: comms

External: N2YO · Heavens-Above · Gunter

§ Orbital elements

Epoch: 2026-09-21T08:29:48.159168Z

Period
91.74 min
Inclination
53.1595°
Eccentricity
0.0000964
Mean motion
15.69705475 rev/d
Perigee alt
359.1 km
Apogee alt
360.4 km
Semi-major
6,737.9 km
B*
-1.9627e-6
RAAN
291.4406°
Arg perigee
63.9895°
Mean anomaly
296.1222°
Rev number
11,513

§ Raw data

STARLINK-11291 [DTC]1 61208U 24171J   26264.35402962 -.00000826  00000+0 -19627-5 0  99902 61208  53.1595 291.4406 0000964  63.9895 296.1222 15.69705475115136

JSON: /api/v1/satellites/61208 · /tle

For live sub-satellite position, see the globe view (requires WebGL).

§ Visibility from observer

Set your observer location to see the next 7 days of passes ≥ 10°. The values pass through the URL so the page stays shareable.

No JS? Fill the form by hand. The geolocation button needs JavaScript.